Weather in Kumamoto

Japan     32°51′21″N   130°43′00″E
temp.,
°C
wind,
m/s
gust,
m/s
humid.,
%
clouds,
%
prec.,
mm/h
press.,
hPa
HPBL,
m
11 april, sun
sun1100:00+11e23520 0.0 102993
03:00+10e23566 0.0 102984
06:00+9ene2250100 0.0 103071
09:00+16ne1240100 0.0 1030557
12:00+21wnw332861 0.0 10281706
15:00+21w432978 0.0 1027882
18:00+19wsw23375 0.0 1027189
21:00+14e24610 0.0 1028132
12 april, mon
mon1200:00+12e2472100 0.0 1029127
03:00+12e2376100 0.0 102688
06:00+12ene227869 0.0 102660
09:00+18ene2560100 0.0 1025710
12:00+17ene2472100 0.0 1023221
15:00+16nne1283100 0.7 1021159
18:00+15nnw1194100 1.4 102141
21:00+15se1192100 1.6 102013
13 april, tue
tue1300:00+15nw1191100 0.0 101814
03:00+15ese1193100 0.8 101615
06:00+15nne1192100 0.8 101418
09:00+17ese2482100 1.4 1014329
12:00+17e1387100 0.6 1013186
15:00+17wsw2286100 0.6 1012354
18:00+16sse139291 0.0 1013209
21:00+16ssw2493100 0.0 1014291
14 april, wed
wed1400:00+15sw129099 0.1 1014165
03:00+14sw119398 0.1 101455
06:00+13w129057 0.1 101495
09:00+16wnw23461 0.1 1015948
12:00+20nw34388 0.0 10131500
15:00+19nnw673092 0.0 10141588
18:00+17n5753100 0.0 10151096
21:00+12nne5960100 0.0 1018696
15 april, thu
thu1500:00+11ne3562100 0.0 1019279
03:00+9ene2461100 0.0 1019138
06:00+7ene2352100 0.0 101997
09:00+15nne232684 0.0 1019581
12:00+19w32274 0.0 10181202
15:00+20w43365 0.0 10171380
18:00+17wsw34435 0.0 1018338
21:00+13se226229 0.0 101971